Weather History for Staverton, United Kingdom

Change the Weather History Date:

Monday, March 11, 2013

  Actual Average Record
Temperature  
Mean Temperature 32 °F -  
Max Temperature 35 °F 52 °F 60 °F (2012)
Min Temperature 30 °F 43 °F 30 °F (1997)
Degree Days  
Heating Degree Days 32    
Moisture  
Dew Point 20 °F    
Average Humidity 62    
Maximum Humidity 75    
Minimum Humidity 48    
Precipitation  
Precipitation 0.00 in - - ()
Sea Level Pressure  
Sea Level Pressure 29.81 in    
Wind  
Wind Speed 19 mph ()    
Max Wind Speed 29 mph    
Max Gust Speed 41 mph    
Visibility 6.2 miles    
Events Snow    
Averages and records for this station are not official NWS values.
T = Trace of Precipitation, MM = Missing Value Source: Averaged Metar Reports

Daily Weather History Graph

Daily Weather History Graph

Search for Another Location

Airport:

Trip Planner

Search our weather history database for the weather conditions in past years. The results will help you decide how hot, cold, wet, or windy it might be!

Date:

Astronomy

Mar. 11, 2013 Rise Set
Actual Time 6:31 AM GMT 6:06 PM GMT
Civil Twilight 5:58 AM GMT 6:39 PM GMT
Nautical Twilight 5:19 AM GMT 7:19 PM GMT
Astronomical Twilight 4:39 AM GMT 7:59 PM GMT
Moon 5:56 AM GMT (3/11) 6:08 PM GMT (3/11)
Length of Visible Light 12h 41m
Length of Day
11h 34m
Waning Crescent, 0% of the Moon is Illuminated
Mar 11
Waning Crescent
Mar 11
New
Mar 19
First Quarter
Mar 27
Full
Apr 3
Last Quarter

Hourly Weather History & Observations

Time (GMT) Temp. Windchill Dew Point Humidity Pressure Visibility Wind Dir Wind Speed Gust Speed Precip Events Conditions
6:50 AM 30.2 °F 18.5 °F 21.2 °F 69% 29.80 in 6.2 mi NE 17.3 mph - N/A   Mostly Cloudy
7:20 AM 30.2 °F 18.1 °F 23.0 °F 75% 29.80 in 6.2 mi NE 18.4 mph - N/A   Scattered Clouds
7:50 AM 30.2 °F 17.8 °F 21.2 °F 69% 29.80 in 6.2 mi NE 19.6 mph 31.1 mph N/A   Mostly Cloudy
8:20 AM 30.2 °F 17.8 °F 23.0 °F 75% 29.80 in 6.2 mi NE 19.6 mph - N/A   Scattered Clouds
8:50 AM 32.0 °F 20.1 °F 23.0 °F 69% 29.80 in 6.2 mi NNE 19.6 mph - N/A   Scattered Clouds
9:20 AM 32.0 °F 20.1 °F 21.2 °F 64% 29.80 in 6.2 mi NNE 19.6 mph 33.4 mph N/A   Scattered Clouds
9:50 AM 33.8 °F 22.2 °F 21.2 °F 60% 29.80 in 6.2 mi NE 20.7 mph - N/A   Scattered Clouds
10:20 AM 32.0 °F 19.2 °F 21.2 °F 64% 29.80 in 6.2 mi NE 23.0 mph 38.0 mph N/A   Scattered Clouds
10:50 AM 33.8 °F 21.3 °F 21.2 °F 60% 29.80 in 6.2 mi NE 24.2 mph 38.0 mph N/A   Scattered Clouds
11:20 AM 32.0 °F 18.1 °F 21.2 °F 64% 29.80 in 6.2 mi NE 27.6 mph 39.1 mph N/A   Scattered Clouds
11:50 AM 33.8 °F 21.6 °F 19.4 °F 56% 29.80 in 6.2 mi NE 23.0 mph - N/A   Scattered Clouds
12:50 PM 35.6 °F 23.4 °F 21.2 °F 56% 29.80 in 6.2 mi NE 25.3 mph 39.1 mph N/A Snow Light Snow Showers
1:20 PM 33.8 °F 21.3 °F 19.4 °F 56% 29.80 in 6.2 mi NE 24.2 mph 39.1 mph N/A   Scattered Clouds
1:50 PM 33.8 °F 20.3 °F 23.0 °F 65% 29.80 in 6.2 mi NE 28.8 mph 40.3 mph N/A Snow Light Snow Showers
2:20 PM 33.8 °F 20.5 °F 23.0 °F 65% 29.80 in 6.2 mi NE 27.6 mph 39.1 mph N/A Snow Light Snow Showers
2:50 PM 33.8 °F 20.8 °F 19.4 °F 56% 29.80 in 6.2 mi NE 26.5 mph 38.0 mph N/A   Scattered Clouds
3:20 PM 33.8 °F 21.3 °F 19.4 °F 56% 29.80 in 6.2 mi NE 24.2 mph - N/A   Scattered Clouds
3:50 PM 33.8 °F 21.0 °F 19.4 °F 56% 29.80 in 6.2 mi NE 25.3 mph 38.0 mph N/A Snow Light Snow Showers
4:50 PM 33.8 °F 21.0 °F 15.8 °F 48% 29.80 in 6.2 mi NE 25.3 mph 40.3 mph N/A   Scattered Clouds
5:20 PM 30.2 °F 17.1 °F 21.2 °F 69% 29.80 in 6.2 mi NNE 21.9 mph - N/A   Scattered Clouds
5:50 PM 30.2 °F 16.5 °F 17.6 °F 60% 29.83 in 6.2 mi NNE 24.2 mph 41.4 mph N/A   Partly Cloudy
6:20 PM 30.2 °F 17.4 °F 15.8 °F 55% 29.83 in 6.2 mi NE 20.7 mph 33.4 mph N/A   Scattered Clouds
6:50 PM 30.2 °F 17.4 °F 17.6 °F 60% 29.83 in 6.2 mi NE 20.7 mph 35.7 mph N/A   Scattered Clouds
7:20 PM 30.2 °F 17.4 °F 17.6 °F 60% 29.83 in 6.2 mi NNE 20.7 mph 33.4 mph N/A   Scattered Clouds